星链-3265 (STARLINK-3265 )

导读

STARLINK-3265是美国太空探索技术公司(SpaceX)星链星座中的一颗卫星,于2021年12月18日发射升空。星链项目旨在构建全球卫星互联网星座,为全球偏远地区、海洋等网络覆盖盲区提供高速互联网服务。该卫星入轨后,将扩充星链星座的在轨卫星规模,提升星座服务覆盖范围与网络稳定性,助力星链全球互联网服务的部署推进。

Basic Information
目录编号:
50180
目录名称:
STARLINK-3265
国际标识:
2021-125AA
轨道中心:
EARTH
卫星名称:
星链-3265
卫星全名:
星链-3265 (STARLINK-3265 )
卫星状态:
在轨 (已飞行1721 天)
发射日期:
2021-12-18 UTC
国别 :
美国 (US)
星等 :
--
Orbit Information
数据来源 国际轨道数据
星历时间: 2026-09-04T13:16:24+0800
12小时前
查看轨道信息
半长轴: 6848.862km
偏心率: 0.0001114
轨道倾角: 53.159°
近地点辐角 98.284°
升交点赤经 157.564°
平近点角 261.828°
近地点: 469.962km
远地点: 471.488km
周期: 94.013分钟
每日圈数: 15.317052
Detailed Information
固有亮度:
5
最大亮度:
2.5
卫星平台:
Starlink v1.5
覆盖范围:
全球
运营商:
太空探索技术公司
运营商所在国:
美国
制造商(研发单位):
太空探索技术公司
制造商所在国:
美国
使用方式:
暂无
Satellite Introduction
星链(Starlink)计划是由太空探索技术公司(SpaceX)提出的一个巨型低轨卫星互联网星座项目,计划在2019年至2024年间在太空搭建由约1.2万颗卫星组成的“星链”网络,其中1584颗将部署在地球上空550千米处的近地轨道,并从2020年开始工作。该卫星仍在工作。
2D Orbit Map
3D Orbit Map
Orbit Altitude Analysis Chart
Orbit Inclination Analysis Chart
Orbit Comprehensive Analysis Chart
View Comprehensive Chart
Conjunction Data List
Event ID Objects TCA Miss Dist (km) Collision Risk Probability Collision Risk Index (CRI) Action
CDM_260906-002105-018006-268822
BLUEBON (62688)
2026-09-06T
00:21:40+0000
1.501 km
极远距离
6.681779E-6 低风险 0.51
CDM_260907-024905-018005-503421
2026-09-07T
02:49:46+0000
1.559 km
极远距离
5.869214E-6 低风险 0.5
CDM_260904-183205-018006-262322
OTTER (62623)
2026-09-04T
18:32:14+0000
2.085 km
极远距离
2.574091E-6 低风险 0.43
CDM_260905-233405-018006-268822
BLUEBON (62688)
2026-09-05T
23:34:38+0000
2.901 km
极远距离
1.394062E-6 低风险 0.38
CDM_260827-223805-018006-803121
2026-08-27T
22:38:20+0000
2.797 km
极远距离
8.581298E-7 极低风险 0.34